Location: Unspecified
(33.6682°S, 0.0000°E)
Time: 09:47:13
(UTC+00:00)

Tiros 1 - All Passes

Search period start: 19 June 2019 00:00
Search period end: 29 June 2019 00:00
Orbit: 631 x 664 km, 48.4° (Epoch: 18 June)

Date Brightness Start Highest point End Pass type
(mag) Time Alt. Az. Time Alt. Az. Time Alt. Az.
19 Jun - 10:18:33 10° N 10:22:08 21° NE 10:25:46 10° E daylight
19 Jun - 11:59:18 10° WNW 12:04:00 61° SW 12:08:48 10° SE daylight
19 Jun - 13:43:34 10° WSW 13:46:59 19° SSW 13:50:27 10° SSE daylight
19 Jun - 15:28:12 10° SSW 15:30:46 14° S 15:33:20 10° SE daylight
19 Jun - 17:10:14 10° SSW 17:14:20 26° SSE 17:18:25 10° E daylight
19 Jun - 18:52:03 10° SW 18:56:55 73° NW 19:01:43 10° NE visible
19 Jun - 20:38:06 10° WNW 20:38:27 10° NW 20:38:49 10° NW visible
20 Jun - 10:43:21 10° NNW 10:47:57 53° NE 10:52:38 10° ESE daylight
20 Jun - 12:26:06 10° W 12:30:21 31° SSW 12:34:40 10° SE daylight
20 Jun - 14:11:06 10° SW 14:13:47 15° S 14:16:30 10° SSE daylight
20 Jun - 15:54:24 10° SSW 15:57:36 17° SSE 16:00:47 10° SE daylight
20 Jun - 17:36:02 10° SW 17:40:45 47° SSE 17:45:26 10° ENE visible
20 Jun - 19:18:36 10° WSW 19:22:49 30° NW 19:26:59 10° NNE visible
21 Jun - 09:28:50 10° N 09:32:11 19° NE 09:35:35 10° E daylight
21 Jun - 11:09:17 10° WNW 11:14:00 66° SW 11:18:49 10° SE daylight
21 Jun - 12:53:26 10° WSW 12:56:56 20° SSW 13:00:28 10° SSE daylight
21 Jun - 14:38:09 10° SSW 14:40:41 14° S 14:43:12 10° SE daylight
21 Jun - 16:20:15 10° SSW 16:24:17 25° SSE 16:28:17 10° E daylight
21 Jun - 18:02:02 10° SW 18:06:55 80° NW 18:11:45 10° NE visible
21 Jun - 19:46:57 10° WNW 19:48:30 11° NW 19:50:03 10° NW visible
22 Jun - 09:53:26 10° NNW 09:57:58 48° NE 10:02:36 10° ESE daylight
22 Jun - 11:36:01 10° W 11:40:19 33° SSW 11:44:41 10° SE daylight
22 Jun - 13:20:59 10° SW 13:23:43 15° S 13:26:28 10° SSE daylight
22 Jun - 15:04:26 10° SSW 15:07:32 17° SSE 15:10:37 10° SE daylight
22 Jun - 16:46:04 10° SW 16:50:43 44° SSE 16:55:22 10° ENE daylight
22 Jun - 18:28:31 10° WSW 18:32:51 33° NW 18:37:08 10° NNE visible
23 Jun - 08:39:08 10° N 08:42:14 18° NE 08:45:22 10° E daylight
23 Jun - 10:19:17 10° WNW 10:24:00 71° SW 10:28:49 10° SE daylight
23 Jun - 12:03:19 10° WSW 12:06:52 20° SSW 12:10:28 10° SSE daylight
23 Jun - 13:48:07 10° SSW 13:50:35 14° S 13:53:05 10° SSE daylight
23 Jun - 15:30:18 10° SSW 15:34:13 24° SSE 15:38:09 10° ESE daylight
23 Jun - 17:12:02 10° SW 17:16:55 87° NW 17:21:46 10° NE daylight
23 Jun - 18:56:26 10° W 18:58:33 13° NW 19:00:41 10° NNW visible
24 Jun - 09:03:33 10° NNW 09:08:00 44° NE 09:12:32 10° ESE daylight
24 Jun - 10:45:56 10° W 10:50:17 35° SSW 10:54:42 10° SE daylight
24 Jun - 12:30:51 10° SW 12:33:38 15° S 12:36:25 10° SSE daylight
24 Jun - 14:14:27 10° SSW 14:17:27 16° SSE 14:20:27 10° SE daylight
24 Jun - 15:56:05 10° SW 16:00:42 41° SSE 16:05:17 10° ENE daylight
24 Jun - 17:38:26 10° WSW 17:42:52 36° NW 17:47:16 10° NNE visible
25 Jun - 07:49:28 10° NNE 07:52:17 16° NE 07:55:07 10° E daylight
25 Jun - 09:29:17 10° NW 09:34:00 78° SW 09:38:48 10° SE daylight
25 Jun - 11:13:11 10° WSW 11:16:49 21° SSW 11:20:29 10° SSE daylight
25 Jun - 12:58:04 10° SSW 13:00:30 14° S 13:02:58 10° SSE daylight
25 Jun - 14:40:20 10° SSW 14:44:10 23° SSE 14:48:00 10° ESE daylight
25 Jun - 16:22:02 10° SW 16:26:55 87° SE 16:31:46 10° NE daylight
25 Jun - 18:06:02 10° W 18:08:36 14° NW 18:11:09 10° NNW visible
26 Jun - 08:13:40 10° NNW 08:18:02 40° NE 08:22:29 10° ESE daylight
26 Jun - 09:55:52 10° W 10:00:15 37° SSW 10:04:43 10° SE daylight
26 Jun - 11:40:44 10° SW 11:43:34 15° S 11:46:24 10° SSE daylight
26 Jun - 13:24:28 10° SSW 13:27:23 16° S 13:30:17 10° SE daylight
26 Jun - 15:06:07 10° SW 15:10:39 38° SSE 15:15:12 10° E daylight
26 Jun - 16:48:22 10° WSW 16:52:53 39° NW 16:57:22 10° NNE daylight
27 Jun - 06:59:54 10° NNE 07:02:20 14° NE 07:04:49 10° E daylight
27 Jun - 08:39:18 10° NW 08:44:00 84° SW 08:48:48 10° SE daylight
27 Jun - 10:23:04 10° WSW 10:26:46 22° SSW 10:30:30 10° SSE daylight
27 Jun - 12:08:00 10° SSW 12:10:26 14° S 12:12:52 10° SSE daylight
27 Jun - 13:50:22 10° SSW 13:54:06 22° SSE 13:57:51 10° ESE daylight
27 Jun - 15:32:02 10° SW 15:36:54 80° SE 15:41:45 10° NE daylight
27 Jun - 17:15:45 10° W 17:18:38 16° NW 17:21:32 10° NNW daylight
28 Jun - 07:23:48 10° NNW 07:28:04 36° NE 07:32:24 10° ESE daylight
28 Jun - 09:05:48 10° W 09:10:13 39° SSW 09:14:44 10° SE daylight
28 Jun - 10:50:37 10° SW 10:53:29 16° SSW 10:56:23 10° SSE daylight
28 Jun - 12:34:29 10° SSW 12:37:18 15° S 12:40:08 10° SE daylight
28 Jun - 14:16:09 10° SW 14:20:37 36° SSE 14:25:06 10° E daylight
28 Jun - 15:58:18 10° WSW 16:02:55 43° NW 16:07:28 10° NNE daylight
